Back to catalog

USA 370

AliveMilitaryVLEO
NORAD 59830·PAYLOAD·🇺🇸 United States

Launched May 22, 2024 from Vandenberg Space Force Base

Loading…

Next Passes (next 24 hours)

TLE

StaleSource: Mike McCants

Epoch: Aug 21, 2026, 21:28 UTC

1 59830U 24096S   26233.89513297 0.00000000  00000-0  00000-0 0    09
2 59830  70.0210 161.9059 0003032 265.0843  94.9157 14.96712533    00

Track USA 370 in real time with AllMySat

Download on the App Store